Location: Horowhenua
(40.7500°S, 175.3333°E)
Time: 12:28:40
(UTC+00:00)

BREEZE M DEB (TANK) - Pass Details

Date: 28 January 2023
Orbit: 280 x 14288 km, 49.5° (Epoch: 28 March)

Event Time Altitude Azimuth Distance (km) Brightness Sun altitude
Exits shadow 14:17:14 61° 277° (W) 991 3.3 -26.2°
Maximum altitude 14:18:08 79° 208° (SSW) 1,019 3.5 -26.1°
Drops below altitude 10° 14:32:01 10° 120° (ESE) 6,431 8.5 -24.8°
Sets 14:41:38 0° 117° (ESE) 9,760 9.6 -23.8°
